TimeCDT,TemperatureF,Dew PointF,Humidity,Sea Level PressureIn,VisibilityMPH,Wind Direction,Wind SpeedMPH,Gust SpeedMPH,PrecipitationIn,Events,Conditions,WindDirDegrees,DateUTC
12:15 AM,66.6,63.1,89,29.88,10.0,SW,5.8,-,N/A,,Clear,220,2013-08-06 05:15:00
12:35 AM,68.0,63.5,85,29.89,10.0,WSW,6.9,-,N/A,,Scattered Clouds,240,2013-08-06 05:35:00
12:55 AM,67.3,63.5,88,29.89,10.0,West,4.6,-,N/A,,Mostly Cloudy,260,2013-08-06 05:55:00
1:15 AM,66.2,62.6,88,29.89,10.0,WNW,5.8,-,N/A,,Overcast,290,2013-08-06 06:15:00
1:35 AM,65.7,62.2,89,29.88,10.0,Calm,Calm,-,N/A,,Scattered Clouds,0,2013-08-06 06:35:00
1:55 AM,65.3,62.1,89,29.88,10.0,West,5.8,-,N/A,,Clear,280,2013-08-06 06:55:00
2:15 AM,66.2,62.8,89,29.88,10.0,West,6.9,-,N/A,,Clear,280,2013-08-06 07:15:00
2:35 AM,65.3,61.9,89,29.87,10.0,Calm,Calm,-,N/A,,Clear,0,2013-08-06 07:35:00
2:55 AM,64.9,61.9,90,29.86,10.0,West,5.8,-,N/A,,Clear,280,2013-08-06 07:55:00
3:15 AM,64.6,61.7,90,29.86,10.0,West,3.5,-,N/A,,Clear,280,2013-08-06 08:15:00
3:35 AM,63.9,61.0,90,29.84,10.0,West,4.6,-,N/A,,Clear,260,2013-08-06 08:35:00
3:55 AM,63.0,60.1,90,29.84,10.0,Calm,Calm,-,N/A,,Clear,0,2013-08-06 08:55:00
4:15 AM,62.2,59.4,90,29.84,7.0,Calm,Calm,-,N/A,,Clear,0,2013-08-06 09:15:00
4:35 AM,63.5,60.8,91,29.84,7.0,West,4.6,-,N/A,,Clear,280,2013-08-06 09:35:00
4:55 AM,62.8,60.1,91,29.85,10.0,Calm,Calm,-,N/A,,Clear,0,2013-08-06 09:55:00
5:15 AM,62.8,60.3,91,29.86,5.0,Calm,Calm,-,N/A,,Clear,0,2013-08-06 10:15:00
5:35 AM,62.1,59.5,91,29.85,5.0,Calm,Calm,-,N/A,,Clear,0,2013-08-06 10:35:00
5:55 AM,62.2,59.7,91,29.84,1.0,Calm,Calm,-,N/A,,Mostly Cloudy,0,2013-08-06 10:55:00
6:15 AM,62.4,59.9,91,29.84,0.5,NNW,3.5,-,N/A,Fog,Fog,340,2013-08-06 11:15:00
6:35 AM,61.7,59.2,91,29.84,0.2,Calm,Calm,-,N/A,Fog,Fog,0,2013-08-06 11:35:00
6:55 AM,62.6,60.3,92,29.85,0.8,NNW,4.6,-,N/A,,Mostly Cloudy,330,2013-08-06 11:55:00
7:15 AM,65.3,62.8,92,29.87,3.0,WNW,3.5,-,N/A,,Clear,300,2013-08-06 12:15:00
7:35 AM,66.4,64.0,92,29.88,5.0,NW,3.5,-,N/A,,Clear,310,2013-08-06 12:35:00
7:55 AM,67.5,64.8,91,29.88,5.0,SW,3.5,-,N/A,,Clear,230,2013-08-06 12:55:00
8:15 AM,68.4,64.8,88,29.89,5.0,SW,3.5,-,N/A,,Clear,220,2013-08-06 13:15:00
8:35 AM,68.9,65.1,88,29.89,7.0,Calm,Calm,-,N/A,,Clear,0,2013-08-06 13:35:00
8:55 AM,68.9,65.3,88,29.90,7.0,Calm,Calm,-,N/A,,Clear,0,2013-08-06 13:55:00
9:15 AM,69.3,65.7,88,29.92,7.0,Calm,Calm,-,N/A,,Clear,0,2013-08-06 14:15:00
9:35 AM,69.8,65.8,87,29.92,7.0,WSW,5.8,-,N/A,,Clear,240,2013-08-06 14:35:00
9:55 AM,70.7,66.2,86,29.92,10.0,West,6.9,-,N/A,,Clear,260,2013-08-06 14:55:00
10:15 AM,73.0,66.9,81,29.90,10.0,West,5.8,-,N/A,,Scattered Clouds,280,2013-08-06 15:15:00
10:35 AM,75.0,67.5,77,29.89,10.0,WNW,3.5,-,N/A,,Clear,290,2013-08-06 15:35:00
10:55 AM,76.6,66.7,71,29.86,10.0,Calm,Calm,-,N/A,,Clear,0,2013-08-06 15:55:00
11:15 AM,77.4,68.7,75,29.85,10.0,SSE,4.6,-,N/A,,Light Drizzle,150,2013-08-06 16:15:00
11:35 AM,78.6,68.9,72,29.84,10.0,SSE,9.2,-,N/A,,Clear,150,2013-08-06 16:35:00
11:55 AM,80.2,67.6,65,29.82,10.0,SE,6.9,-,N/A,,Clear,140,2013-08-06 16:55:00
12:15 PM,79.5,67.6,67,29.81,10.0,SE,8.1,-,N/A,,Clear,140,2013-08-06 17:15:00
12:35 PM,81.3,67.1,62,29.82,10.0,SSE,8.1,-,N/A,,Clear,160,2013-08-06 17:35:00
12:55 PM,81.9,68.2,63,29.82,10.0,SSE,6.9,-,N/A,,Clear,160,2013-08-06 17:55:00
1:15 PM,82.6,67.6,60,29.82,10.0,South,8.1,-,N/A,,Clear,170,2013-08-06 18:15:00
1:35 PM,83.7,66.2,56,29.82,10.0,South,8.1,-,N/A,,Clear,170,2013-08-06 18:35:00
1:55 PM,84.2,64.0,51,29.82,10.0,South,6.9,-,N/A,,Clear,190,2013-08-06 18:55:00
2:15 PM,84.4,63.3,49,29.82,10.0,South,5.8,-,N/A,,Clear,180,2013-08-06 19:15:00
2:35 PM,85.1,66.0,53,29.82,10.0,SSW,4.6,-,N/A,,Clear,210,2013-08-06 19:35:00
2:55 PM,85.1,66.7,54,29.83,10.0,SSW,8.1,-,N/A,,Scattered Clouds,210,2013-08-06 19:55:00
3:15 PM,86.0,66.9,53,29.83,10.0,SSW,5.8,-,N/A,,Scattered Clouds,210,2013-08-06 20:15:00
3:35 PM,86.9,66.7,51,29.83,10.0,SW,5.8,-,N/A,,Clear,230,2013-08-06 20:35:00
3:55 PM,87.1,65.7,49,29.83,10.0,SW,5.8,-,N/A,,Clear,230,2013-08-06 20:55:00
4:15 PM,87.4,65.7,48,29.83,10.0,SW,6.9,-,N/A,,Scattered Clouds,220,2013-08-06 21:15:00
4:35 PM,86.2,66.4,51,29.83,10.0,SW,5.8,-,N/A,,Mostly Cloudy,230,2013-08-06 21:35:00
4:55 PM,87.3,67.3,51,29.83,10.0,West,4.6,-,N/A,,Mostly Cloudy,280,2013-08-06 21:55:00
5:15 PM,87.6,67.6,51,29.83,10.0,NW,4.6,-,N/A,,Overcast,310,2013-08-06 22:15:00
5:35 PM,84.4,68.2,58,29.82,10.0,Calm,Calm,-,N/A,,Scattered Clouds,0,2013-08-06 22:35:00
5:55 PM,84.4,69.8,61,29.82,10.0,West,4.6,-,N/A,,Clear,260,2013-08-06 22:55:00
6:15 PM,86.4,68.7,55,29.82,10.0,WSW,4.6,-,N/A,,Clear,250,2013-08-06 23:15:00
6:35 PM,85.5,70.0,60,29.81,10.0,SW,3.5,-,N/A,,Clear,220,2013-08-06 23:35:00
6:55 PM,84.2,71.2,65,29.80,10.0,Calm,Calm,-,N/A,,Clear,0,2013-08-06 23:55:00
7:15 PM,83.5,71.8,68,29.80,10.0,WSW,3.5,-,N/A,,Clear,250,2013-08-07 00:15:00
7:35 PM,82.6,72.7,72,29.80,10.0,Calm,Calm,-,N/A,,Clear,0,2013-08-07 00:35:00
7:55 PM,81.0,71.8,74,29.80,10.0,Calm,Calm,-,N/A,,Clear,0,2013-08-07 00:55:00
8:15 PM,77.9,72.1,82,29.80,10.0,Calm,Calm,-,N/A,,Clear,0,2013-08-07 01:15:00
8:35 PM,77.4,72.0,83,29.81,10.0,Calm,Calm,-,N/A,,Clear,0,2013-08-07 01:35:00
8:55 PM,77.2,71.6,83,29.81,10.0,Calm,Calm,-,N/A,,Clear,0,2013-08-07 01:55:00
9:15 PM,76.6,72.0,85,29.82,10.0,Calm,Calm,-,N/A,,Scattered Clouds,0,2013-08-07 02:15:00
9:35 PM,77.0,71.8,84,29.82,10.0,SSE,3.5,-,N/A,,Overcast,160,2013-08-07 02:35:00
9:55 PM,75.9,70.9,84,29.83,7.0,SE,6.9,-,N/A,,Mostly Cloudy,140,2013-08-07 02:55:00
10:15 PM,75.0,68.0,79,29.83,10.0,SSE,10.4,-,N/A,,Scattered Clouds,160,2013-08-07 03:15:00
10:35 PM,73.0,64.8,75,29.84,10.0,South,5.8,-,N/A,,Clear,170,2013-08-07 03:35:00
10:55 PM,71.6,65.3,80,29.85,10.0,South,5.8,-,N/A,,Clear,180,2013-08-07 03:55:00
11:15 PM,70.7,65.3,83,29.85,10.0,South,3.5,-,N/A,,Clear,190,2013-08-07 04:15:00
11:35 PM,70.2,65.5,85,29.85,10.0,South,4.6,-,N/A,,Clear,170,2013-08-07 04:35:00
11:55 PM,69.4,65.3,87,29.84,10.0,SSW,4.6,-,N/A,,Clear,200,2013-08-07 04:55:00